This is the latest recevied weather packets stored in our database for station/object YREN. If no packets are shown the sender has not sent any weather packets the latest 10 day(s).
| Time | Temp. | Humidity | Pressure | Rain* | Wind** | Luminosity | Snow |
|---|---|---|---|---|---|---|---|
| 1788521704 | 17.22° C | 64% | 1011.3 hPa | 0 mm | - | - | - |
| 1788520804 | 16.67° C | 64% | 1011.2 hPa | 0 mm | - | - | - |
| 1788519903 | 16.67° C | 64% | 1011.2 hPa | 0 mm | - | - | - |
| 1788519004 | 16.67° C | 66% | 1011.5 hPa | 0 mm | - | - | - |
| 1788518104 | 16.67° C | 66% | 1011.5 hPa | 0 mm | - | - | - |
| 1788517204 | 15° C | 77% | 1012.1 hPa | 0 mm | - | - | - |
| 1788516305 | 15° C | 77% | 1012.1 hPa | 0 mm | - | - | - |
| 1788515404 | 14.44° C | 81% | 1012.7 hPa | 0 mm | - | - | - |
| 1788514504 | 14.44° C | 81% | 1012.7 hPa | 0 mm | - | - | - |
| 1788513604 | 15° C | 78% | 1012.7 hPa | 0 mm | - | - | - |
| 1788512704 | 15° C | 78% | 1012.7 hPa | 0 mm | - | - | - |
| 1788511805 | 15° C | 77% | 1012.5 hPa | 0 mm | - | - | - |
| 1788510904 | 15° C | 80% | 1012.1 hPa | 0 mm | - | - | - |
| 1788510004 | 15° C | 80% | 1012.1 hPa | 0 mm | - | - | - |
| 1788509103 | 15° C | 81% | 1012.3 hPa | 0 mm | - | - | - |
| 1788508204 | 15° C | 81% | 1012.3 hPa | 0 mm | - | - | - |
| 1788507304 | 15° C | 81% | 1012.3 hPa | 0 mm | - | - | - |
| 1788506404 | 15.56° C | 80% | 1012.4 hPa | 0 mm | - | - | - |
| 1788505503 | 15.56° C | 80% | 1012.4 hPa | 0 mm | - | - | - |
| 1788504605 | 15.56° C | 84% | 1012.9 hPa | 0.25 mm | - | - | - |
| 1788503704 | 15.56° C | 84% | 1012.9 hPa | 0.25 mm | - | - | - |
| 1788501903 | 15° C | 83% | 1013.7 hPa | 0.25 mm | - | - | - |
| 1788501004 | 15° C | 84% | 1014.4 hPa | 0 mm | - | - | - |
| 1788500104 | 15° C | 84% | 1014.4 hPa | 0 mm | - | - | - |
| 1788499203 | 16.11° C | 79% | 1014.2 hPa | 0 mm | - | - | - |
* Rain latest hour (hover to see other rain measurements)
** Current wind speed in m/s (hover to see current wind gust speed)